Weather reports worldwide

Advertisment
Putbus, Germany (10093): temperature & dewpoint: 13.12.2018 05:00:00 - 19.12.2018 05:00:00 (CET)Putbus, Germany (10093): temperature 5cm & temperature -5cm: 13.12.2018 05:00:00 - 19.12.2018 05:00:00 (CET)Putbus, Germany (10093): temperature -20cm & temperature -100cm: 13.12.2018 05:00:00 - 19.12.2018 05:00:00 (CET)Putbus, Germany (10093): wind speed & gusts: 13.12.2018 05:00:00 - 19.12.2018 05:00:00 (CET)Putbus, Germany (10093): wind direction: 13.12.2018 05:00:00 - 19.12.2018 05:00:00 (CET)Putbus, Germany (10093): reduced air pressure: 13.12.2018 05:00:00 - 19.12.2018 05:00:00 (CET)Putbus, Germany (10093): visibility: 13.12.2018 05:00:00 - 19.12.2018 05:00:00 (CET)Putbus, Germany (10093): sunshine duration: 13.12.2018 05:00:00 - 19.12.2018 05:00:00 (CET)Putbus, Germany (10093): precipitation: 13.12.2018 05:00:00 - 19.12.2018 05:00:00 (CET)
Date & Time tt [°C] td [°C] tt 5cm [°C] tt -5cm [°C] tt -20cm [°C] tt -100cm [°C] ff [km/h] ff [kn] fx [km/h] fx [kn] dd ppp [hPa] vv [km] sd [min] rr [mm]
19.12.2018 05:00:00 1,8 1,3 1,8 2,0 2,3 6,2 16 9 33 18 SSE 1020,6 4,0 0 0,0
19.12.2018 04:00:00 2,1 2,0 2,1 2,0 2,2 6,2 16 8 30 16 SSE 1021,2 3,1 0 0,0
19.12.2018 03:00:00 2,2 2,2 2,3 2,0 2,1 6,3 13 7 24 13 SSE 1022,0 2,0 0 0,0
19.12.2018 02:00:00 2,1 2,1 2,2 1,8 2,0 6,3 14 7 27 15 SSE 1022,2 0,7 0 0,0
19.12.2018 01:00:00 2,0 2,0 2,0 1,7 2,0 6,3 9 5 21 11 SSE 1022,7 0,3 0 0,0
19.12.2018 00:00:00 2,0 2,0 2,0 1,4 1,9 6,3 12 7 24 13 SSE 1023,0 0,2 0 0,0
18.12.2018 23:00:00 2,3 2,3 2,3 0,7 1,8 6,3 12 6 22 12 S 1023,5 0,2 0 0,0
18.12.2018 22:00:00 1,4 1,4 1,5 0,5 1,7 6,3 10 6 25 13 SSE 1023,8 0,2 0 0,0
18.12.2018 21:00:00 1,6 1,6 1,7 0,4 1,6 6,3 12 6 21 12 SSE 1024,3 0,1 0 0,0
18.12.2018 20:00:00 2,2 2,2 2,2 0,4 1,6 6,3 10 5 17 9 SE 1024,2 0,5 0 0,0
18.12.2018 19:00:00 2,2 2,2 2,1 0,3 1,5 6,3 7 4 17 9 SSE 1024,6 0,7 0 0,0
18.12.2018 18:00:00 2,1 2,1 2,0 0,3 1,5 6,3 9 5 16 9 SSE 1024,4 0,8 0 0,0
18.12.2018 17:00:00 2,0 2,0 1,8 0,2 1,5 6,3 9 5 17 9 S 1024,8 0,6 0 0,0
18.12.2018 16:00:00 1,9 1,9 1,8 0,2 1,4 6,3 9 5 16 9 SSE 1024,6 0,3 0 0,1
18.12.2018 15:00:00 1,8 1,8 1,7 0,2 1,4 6,3 8 5 17 9 SSE 1024,7 0,3 0 0,0
18.12.2018 14:00:00 1,6 1,6 1,8 0,2 1,4 6,4 9 5 19 11 SSE 1024,5 0,2 0 0,0
18.12.2018 13:00:00 1,5 1,5 1,7 0,2 1,4 6,4 8 4 20 11 SSE 1024,9 0,3 0 0,0
18.12.2018 12:00:00 1,5 1,3 1,5 0,2 1,4 6,4 10 5 24 13 SSE 1025,3 0,9 0 0,0
18.12.2018 11:00:00 1,6 1,3 1,5 0,2 1,4 6,4 12 6 25 14 SE 1025,5 1,5 0 0,0
18.12.2018 10:00:00 1,4 1,1 1,3 0,2 1,4 6,4 10 5 18 10 SE 1025,4 1,5 0 0,0
18.12.2018 09:00:00 1,3 1,0 1,1 0,2 1,4 6,4 9 5 21 11 SE 1025,1 1,8 0 0,0
18.12.2018 08:00:00 1,0 0,7 0,8 0,2 1,4 6,4 10 6 20 11 SSE 1024,8 1,6 0 0,1
18.12.2018 07:00:00 0,8 0,4 0,6 0,2 1,4 6,4 8 4 16 8 SE 1024,8 1,6 0 0,0
18.12.2018 06:00:00 0,9 0,5 0,7 0,2 1,4 6,4 7 4 19 10 SE 1024,7 1,9 0 0,0
18.12.2018 05:00:00 0,9 0,4 0,7 0,2 1,4 6,4 9 5 17 9 SSE 1024,5 2,5 0 0,0
18.12.2018 04:00:00 0,7 0,1 0,6 0,2 1,4 6,4 8 4 14 8 SE 1024,6 2,5 0 0,0
18.12.2018 03:00:00 0,6 0,1 0,5 0,2 1,5 6,4 6 3 15 8 SE 1024,8 2,2 0 0,0
18.12.2018 02:00:00 0,4 0,0 0,3 0,2 1,5 6,5 7 4 11 6 SE 1024,5 1,9 0 0,0
18.12.2018 01:00:00 0,3 -0,4 0,1 0,2 1,5 6,5 5 3 11 6 SE 1024,6 1,7 0 0,0
18.12.2018 00:00:00 0,2 -0,8 0,0 0,2 1,5 6,5 6 4 14 7 SE 1024,7 2,8 0 0,0
17.12.2018 23:00:00 0,1 -1,1 -0,1 0,2 1,5 6,5 7 4 14 8 SE 1024,6 3,1 0 0,0
17.12.2018 22:00:00 0,0 -1,2 -0,2 0,2 1,5 6,5 7 4 16 9 SSE 1024,6 2,8 0 0,0
17.12.2018 21:00:00 0,0 -1,6 -0,2 0,2 1,5 6,5 8 4 16 9 S 1024,6 4,0 0 0,0
17.12.2018 20:00:00 -0,1 -2,3 -0,3 0,2 1,5 6,5 10 5 16 9 S 1024,1 6 0 0,0
17.12.2018 19:00:00 -0,1 -2,2 -0,2 0,2 1,5 6,5 8 4 16 8 S 1023,4 6 0 0,0
17.12.2018 18:00:00 0,0 -2,2 -0,2 0,2 1,5 6,5 8 4 15 8 SSE 1023,2 6 0 0,0
17.12.2018 17:00:00 -0,1 -2,4 -0,3 0,2 1,5 6,5 6 3 10 5 SE 1022,6 6 0 0,0
17.12.2018 16:00:00 -0,1 -2,9 -0,3 0,2 1,5 6,5 5 3 11 6 SE 1022,3 7 0 0,0
17.12.2018 15:00:00 -0,1 -3,2 -0,4 0,2 1,5 6,6 5 3 10 5 SE 1021,7 7 0 0,0
17.12.2018 14:00:00 -0,4 -3,3 -1,3 0,2 1,5 6,6 7 4 14 8 SSE 1021,2 7 43 0,0
17.12.2018 13:00:00 0,5 -3,1 0,0 0,2 1,5 6,6 7 4 18 10 S 1020,7 7 59 0,0
17.12.2018 12:00:00 0,3 -3,3 0,3 0,2 1,5 6,6 8 4 17 9 S 1020,6 7 60 0,0
17.12.2018 11:00:00 0,0 -3,3 -1,0 0,2 1,5 6,6 7 4 13 7 SSE 1020,6 7 40 0,0
17.12.2018 10:00:00 -1,0 -3,7 -1,8 0,2 1,5 6,6 6 3 10 6 S 1020,6 6 1 0,0
17.12.2018 09:00:00 -2,1 -4,4 -5,0 0,2 1,6 6,6 5 3 11 6 S 1019,7 7 0 0,0
17.12.2018 08:00:00 -1,8 -4,4 -3,6 0,2 1,6 6,6 6 4 11 6 S 1018,9 9 0 0,0
17.12.2018 07:00:00 -1,2 -4,3 -2,4 0,2 1,6 6,6 7 4 14 8 S 1018,4 9 0 0,0
17.12.2018 06:00:00 -0,7 -4,3 -1,1 0,2 1,6 6,6 9 5 18 10 S 1017,9 10 0 0,0
17.12.2018 05:00:00 -0,6 -3,9 -0,9 0,2 1,6 6,6 8 5 15 8 S 1017,4 10 0 0,0
17.12.2018 04:00:00 -0,6 -3,6 -1,1 0,2 1,6 6,6 5 3 15 8 S 1017,0 9 0 0,0
17.12.2018 03:00:00 -0,5 -3,7 -0,8 0,2 1,6 6,7 6 3 15 8 S 1016,9 9 0 0,0
17.12.2018 02:00:00 -0,5 -3,8 -0,7 0,2 1,6 6,7 5 3 15 8 S 1016,7 9 0 0,0
17.12.2018 01:00:00 -0,5 -4,1 -0,6 0,2 1,6 6,7 8 4 17 9 S 1016,6 9 0 0,0
17.12.2018 00:00:00 -0,5 -4,1 -0,7 0,2 1,6 6,7 8 5 18 10 S 1016,3 10 0 0,0
16.12.2018 23:00:00 -0,4 -4,1 -0,6 0,2 1,6 6,7 9 5 23 12 S 1016,1 10 0 0,0
16.12.2018 22:00:00 -0,4 -4,4 -0,6 0,2 1,6 6,7 12 6 23 12 SSE 1016,0 12 0 0,0
16.12.2018 21:00:00 -0,4 -4,8 -0,5 0,2 1,7 6,7 11 6 21 12 SSE 1015,8 13 0 0,0
16.12.2018 20:00:00 -0,4 -4,9 -0,6 0,3 1,7 6,7 12 7 27 15 SSE 1015,6 11 0 0,0
16.12.2018 19:00:00 -0,3 -4,6 -0,5 0,3 1,7 6,7 9 5 29 16 S 1015,7 13 0 0,0
16.12.2018 18:00:00 -0,1 -5,0 -0,3 0,3 1,7 6,7 13 7 28 15 SSE 1015,8 16 0 0,0
16.12.2018 17:00:00 -0,1 -6,2 -0,3 0,3 1,7 6,7 13 7 29 16 SE 1015,5 18 0 0,0
16.12.2018 16:00:00 0,0 -5,8 -0,3 0,3 1,7 6,7 16 8 31 17 S 1015,6 16 0 0,0
16.12.2018 15:00:00 0,1 -5,7 -0,1 0,3 1,7 6,8 18 10 32 18 SSE 1016,0 17 0 0,0
16.12.2018 14:00:00 0,2 -4,1 0,0 0,3 1,7 6,8 14 8 28 15 SSE 1016,1 11 0 0,0
16.12.2018 13:00:00 0,2 -4,1 0,2 0,3 1,8 6,8 14 8 40 22 SSE 1017,0 12 0 0,0
16.12.2018 12:00:00 0,3 -4,9 0,2 0,3 1,8 6,8 16 9 40 22 SSE 1017,8 17 0 0,0
16.12.2018 11:00:00 0,4 -4,1 0,2 0,3 1,8 6,8 18 10 39 21 SSE 1018,8 15 0 0,0
16.12.2018 10:00:00 0,4 -4,7 0,2 0,3 1,8 6,8 21 11 40 21 SE 1018,9 21 0 0,0
16.12.2018 09:00:00 -0,3 -4,4 -1,2 0,3 1,9 6,8 17 9 36 19 SE 1019,5 16 0 0,0
16.12.2018 08:00:00 -0,2 -4,2 -0,3 0,3 1,9 6,8 16 9 39 21 SE 1019,9 15 0 0,0
16.12.2018 07:00:00 -0,6 -3,3 -0,8 0,3 1,9 6,8 18 10 34 19 SSE 1020,7 10 0 0,0
16.12.2018 06:00:00 0,2 -2,4 0,0 0,3 2,0 6,8 16 8 39 21 SE 1021,2 10 0 0,0
16.12.2018 05:00:00 0,5 -3,1 -0,5 0,4 2,0 6,8 14 7 29 16 SE 1021,5 15 0 0,0
16.12.2018 04:00:00 0,5 -3,3 -0,6 0,4 2,0 6,8 13 7 31 17 SE 1022,4 13 0 0,0
16.12.2018 03:00:00 1,0 -3,6 0,7 0,5 2,1 6,9 16 9 31 17 SE 1023,2 14 0 0,0
16.12.2018 02:00:00 1,2 -1,1 1,0 0,6 2,1 6,9 12 7 26 14 SE 1023,8 9 0 0,0
16.12.2018 01:00:00 1,2 -1,0 0,9 0,6 2,1 6,9 14 7 24 13 SE 1024,5 9 0 0,0
16.12.2018 00:00:00 1,0 -1,4 0,5 0,6 2,2 6,9 10 5 26 14 SE 1025,2 11 0 0,0
15.12.2018 23:00:00 0,9 -1,0 0,4 0,7 2,2 6,9 12 6 22 12 SSE 1026,1 8 0 0,0
15.12.2018 22:00:00 0,8 -0,8 0,3 0,9 2,2 6,9 8 4 21 11 SE 1026,6 7 0 0,0
15.12.2018 21:00:00 0,4 -0,6 0,2 0,9 2,3 6,9 10 5 18 10 SE 1027,2 11 0 0,0
15.12.2018 20:00:00 0,0 -0,3 -0,2 0,8 2,3 6,9 6 3 13 7 SSE 1027,5 4,4 0 0,1
15.12.2018 19:00:00 -0,1 -0,7 -0,1 0,9 2,3 6,9 4 2 7 4 WSW 1027,8 6 0 0,0
15.12.2018 18:00:00 0,0 -1,2 0,0 1,0 2,4 6,9 3 2 10 5 W 1028,3 11 0 0,0
15.12.2018 17:00:00 0,2 -1,8 0,1 1,1 2,4 6,9 6 3 17 9 WNW 1028,7 8 0 0,0
15.12.2018 16:00:00 0,3 -2,2 0,3 1,3 2,4 7,0 10 5 15 8 WNW 1029,1 12 0 0,0
15.12.2018 15:00:00 0,5 -2,0 0,7 1,6 2,4 7,0 8 4 12 6 WNW 1029,4 24 0 0,0
15.12.2018 14:00:00 0,6 -2,3 0,9 1,7 2,3 7,0 8 4 15 8 NW 1029,7 26 0 0,0
15.12.2018 13:00:00 0,6 -2,9 1,2 1,7 2,2 7,0 8 5 13 7 WNW 1030,1 26 0 0,0
15.12.2018 12:00:00 0,6 -3,2 1,0 1,4 2,1 7,0 8 4 11 6 NW 1030,5 26 0 0,0
15.12.2018 11:00:00 0,4 -2,3 0,8 1,1 2,1 7,0 5 3 7 4 NW 1031,2 23 0 0,0
15.12.2018 10:00:00 0,2 -2,3 0,2 0,7 2,1 7,0 3 2 6 3 N 1031,4 24 0 0,0
15.12.2018 09:00:00 0,0 -2,1 -0,1 0,6 2,1 7,0 3 1 8 4 WNW 1031,2 23 0 0,0
15.12.2018 08:00:00 -0,1 -2,1 -0,3 0,6 2,1 7,0 4 2 6 3 NNW 1031,0 25 0 0,0
15.12.2018 07:00:00 -0,1 -1,8 -0,2 0,6 2,1 7,0 4 2 5 3 NNW 1030,9 33 0 0,0
15.12.2018 06:00:00 0,3 -3,2 -0,1 0,6 2,1 7,0 3 2 9 5 SSW 1030,7 35 0 0,0
15.12.2018 05:00:00 0,4 -3,4 0,1 0,5 2,1 7,1 4 2 10 5 S 1030,7 32 0 0,0
15.12.2018 04:00:00 0,4 -3,6 0,0 0,5 2,1 7,1 4 2 11 6 SSE 1030,6 41 0 0,0
15.12.2018 03:00:00 0,5 -4,4 0,2 0,5 2,1 7,1 7 4 14 8 SSE 1030,8 55 0 0,0
15.12.2018 02:00:00 0,3 -3,3 0,0 0,5 2,2 7,1 6 3 11 6 ESE 1030,8 28 0 0,0
15.12.2018 01:00:00 0,3 -3,0 0,0 0,5 2,2 7,1 7 4 19 10 SSE 1030,5 22 0 0,0
15.12.2018 00:00:00 0,4 -3,7 0,1 0,5 2,2 7,1 10 6 19 10 SSE 1030,5 24 0 0,0
14.12.2018 23:00:00 0,3 -3,7 0,0 0,5 2,3 7,1 8 4 21 12 E 1030,4 31 0 0,0
14.12.2018 22:00:00 0,7 -4,0 0,4 0,5 2,3 7,1 11 6 22 12 ESE 1030,4 36 0 0,0
14.12.2018 21:00:00 0,9 -3,8 0,5 0,6 2,4 7,1 6 4 16 9 ESE 1030,3 32 0 0,0
14.12.2018 20:00:00 0,3 -2,3 -0,3 0,7 2,4 7,1 3 2 8 4 E 1030,0 22 0 0,0
14.12.2018 19:00:00 0,2 -2,3 -0,3 0,7 2,5 7,1 3 2 8 4 NE 1029,8 22 0 0,0
14.12.2018 18:00:00 0,5 -3,8 0,1 0,7 2,5 7,1 5 3 13 7 ESE 1029,7 28 0 0,0
14.12.2018 17:00:00 0,6 -3,5 0,3 0,8 2,6 7,2 7 4 19 11 ESE 1029,5 25 0 0,0
14.12.2018 16:00:00 0,6 -3,2 0,4 1,2 2,6 7,2 8 5 16 9 ESE 1029,1 24 0 0,0
14.12.2018 15:00:00 0,7 -3,1 0,6 1,5 2,6 7,2 7 4 14 7 ESE 1028,8 29 0 0,0
14.12.2018 14:00:00 0,7 -2,0 0,7 1,6 2,5 7,2 6 3 22 12 SE 1028,5 19 0 0,0
14.12.2018 13:00:00 0,9 -3,2 0,8 1,3 2,5 7,2 17 9 32 17 E 1028,3 26 0 0,0
14.12.2018 12:00:00 0,8 -3,3 0,7 1,1 2,5 7,2 12 7 34 18 E 1028,3 51 0 0,0
14.12.2018 11:00:00 0,9 -3,6 0,7 1,0 2,6 7,2 18 10 35 19 E 1028,3 43 0 0,0
14.12.2018 10:00:00 1,1 -2,3 0,8 1,0 2,6 7,2 12 6 24 13 E 1028,0 45 0 0,0
14.12.2018 09:00:00 1,3 -2,8 1,0 0,9 2,6 7,2 12 7 33 18 ESE 1027,4 49 0 0,0
14.12.2018 08:00:00 1,4 -2,6 0,8 1,1 2,7 7,2 15 8 28 15 E 1026,8 45 0 0,0
14.12.2018 07:00:00 1,0 -0,3 0,5 1,2 2,7 7,2 6 4 13 7 E 1026,5 13 0 0,0
14.12.2018 06:00:00 0,6 -0,3 0,2 1,2 2,7 7,2 6 3 17 9 ESE 1026,3 22 0 0,1
14.12.2018 05:00:00 0,8 0,5 0,5 1,3 2,7 7,2 3 2 7 4 NNE 1026,3 8 0 0,0
14.12.2018 04:00:00 0,6 0,4 0,3 1,2 2,7 7,2 4 2 5 3 N 1026,2 12 0 0,0
14.12.2018 03:00:00 0,5 0,2 0,1 1,1 2,8 7,3 2 1 4 2 N 1026,2 15 0 0,0
14.12.2018 02:00:00 0,6 0,3 0,2 1,1 2,8 7,3 4 2 6 4 N 1026,1 17 0 0,0
14.12.2018 01:00:00 0,6 0,3 0,2 1,0 2,9 7,3 3 2 10 5 N 1026,0 20 0 0,0
14.12.2018 00:00:00 0,7 0,2 0,1 0,9 3,0 7,3 8 5 12 6 NNE 1025,9 25 0 0,0
13.12.2018 23:00:00 0,4 0,0 0,0 0,8 3,1 7,3 4 2 20 11 ENE 1026,1 31 0 0,5
13.12.2018 22:00:00 0,9 0,2 0,3 1,3 3,2 7,3 13 7 24 13 NE 1026,0 1,6 0 0,0
13.12.2018 21:00:00 0,1 -0,5 -0,6 1,2 3,4 7,3 7 4 13 7 NNE 1025,6 19 0 0,0
13.12.2018 20:00:00 1,9 1,0 1,4 1,7 3,5 7,3 7 4 21 11 E 1025,5 28 0 0,0
13.12.2018 19:00:00 1,4 0,8 0,7 2,0 3,5 7,3 8 4 19 10 NE 1025,4 24 0 0,1
13.12.2018 18:00:00 1,2 0,7 1,0 2,1 3,6 7,3 5 3 18 10 E 1025,5 36 0 0,5
13.12.2018 17:00:00 1,4 0,8 1,3 2,4 3,7 7,3 7 4 29 16 ESE 1025,6 10 0 0,1
13.12.2018 16:00:00 1,7 1,0 1,6 2,8 3,7 7,3 7 4 17 9 ENE 1025,7 34 0 0,1
13.12.2018 15:00:00 1,9 0,8 1,7 3,1 3,7 7,3 14 8 25 14 ENE 1025,8 6 0 0,4
13.12.2018 14:00:00 2,7 1,5 2,8 3,8 3,5 7,3 11 6 27 15 NNE 1025,7 57 13 0,0
13.12.2018 13:00:00 3,7 1,4 4,4 3,7 3,3 7,3 7 4 15 8 ENE 1026,0 25 28 0,0
13.12.2018 12:00:00 2,8 1,2 2,6 2,9 3,2 7,3 7 4 20 11 E 1026,3 41 0 0,0
13.12.2018 11:00:00 2,2 1,3 2,1 2,3 3,1 7,3 8 4 24 13 E 1026,6 54 0 0,2
13.12.2018 10:00:00 2,2 0,9 2,0 1,8 3,1 7,3 15 8 26 14 E 1026,7 27 0 0,0
13.12.2018 09:00:00 2,5 0,8 1,7 1,6 3,1 7,4 19 11 35 19 ENE 1026,5 56 0 0,1
13.12.2018 08:00:00 2,2 1,1 1,4 1,4 3,2 7,4 10 6 19 11 ENE 1026,6 70 0 0,0
13.12.2018 07:00:00 1,1 0,9 -0,6 1,2 3,3 7,4 4 2 8 5 E 1026,2 35 0 0,1
13.12.2018 06:00:00 1,2 0,9 1,0 1,6 3,3 7,4 4 2 7 4 NW 1026,6 13 0 0,1
13.12.2018 05:00:00 1,2 0,7 0,9 1,2 3,5 7,4 6 3 12 6 NNW 1026,8 20 0 1,1

tt = temperature
td = dewpoint
tt 5cm = temperature 5cm
tt -5cm = temperature -5cm
tt -20cm = temperature -20cm
tt -100cm = temperature -100cm
ff = wind speed
fx = gusts
dd = wind direction
ppp = reduced air pressure
vv = visibility
sd = sunshine duration
rr = precipitation

Next stations